GFSNW_sfc_30mbdewp_102.txt.gz
Dewpoint
37 38 39 39 40 40 39 36 28 33 39 32 29 21 17 16 11 6 4 6 4 2 1 -1 -0 -1 1 -1 1 -0 2 6 14 12 21 24 27 17 14 14 15 20 20 18
37 38 39 39 40 40 38 31 30 35 38 26 25 21 17 15 13 8 7 6 6 5 1 1 3 3 5 4 1 -2 18 16 10 8 7 10 16 21 21 16 17 16 19 21
36 37 38 39 38 40 39 33 25 28 36 31 24 26 20 11 13 11 10 9 8 7 4 4 3 4 5 6 8 24 24 19 19 13 8 19 22 22 22 21 28 19 15 14
36 36 37 38 38 38 38 31 28 22 23 26 24 22 26 26 16 15 13 11 10 9 8 7 5 6 6 7 14 17 18 14 14 12 11 9 11 15 17 18 20 26 25 23
37 36 36 37 38 39 34 30 30 24 24 30 27 21 18 17 17 13 21 11 9 11 8 8 6 6 8 9 11 10 14 11 10 11 12 10 7 9 13 14 14 13 14 15
36 37 36 37 38 39 34 36 35 33 25 20 19 17 24 15 11 19 18 19 25 21 18 25 28 28 26 26 25 26 25 18 10 12 14 11 7 7 8 10 11 11 10 12
36 38 38 39 39 40 37 35 32 30 22 18 17 25 20 22 19 16 17 22 21 21 28 29 26 24 23 22 22 23 25 28 23 19 18 15 15 11 12 12 11 9 11 8
37 38 38 38 39 39 39 37 37 30 22 19 17 17 16 15 18 25 26 20 22 33 29 24 18 18 20 21 22 20 23 22 24 19 13 14 11 12 21 30 27 36 37 37
38 38 38 38 38 39 40 36 39 36 29 21 21 19 20 19 18 15 14 16 30 34 28 27 17 15 21 25 17 21 22 23 21 22 16 8 9 22 22 23 23 38 35 37
37 37 38 39 38 39 39 35 38 37 28 25 23 23 26 25 24 22 28 30 27 32 29 23 18 17 19 20 19 26 21 23 22 23 23 20 15 18 21 18 27 39 36 34
37 38 39 39 39 38 39 34 37 36 29 27 26 24 24 29 28 24 32 29 28 32 26 24 19 19 20 21 18 29 26 25 24 22 20 18 25 26 27 34 32 35 36 36
38 38 39 39 39 39 39 32 34 38 35 27 30 28 27 24 29 31 31 31 30 32 30 28 30 27 26 26 22 28 27 23 25 22 22 27 28 29 35 35 34 34 34 35
39 40 39 40 40 39 39 34 33 36 33 32 30 27 27 28 31 29 27 26 24 25 37 32 32 27 30 27 25 30 27 32 28 30 28 32 30 27 30 31 31 31 31 33
40 40 40 40 40 40 40 38 37 36 34 26 23 25 29 30 29 28 31 32 29 30 31 32 31 27 27 28 30 30 30 24 24 25 30 29 30 29 30 30 29 31 32 36
41 40 40 41 40 41 41 41 40 38 32 25 28 31 31 27 30 30 29 30 32 32 31 31 29 28 28 28 27 25 23 21 22 27 32 30 32 28 25 27 27 34 36 40
41 41 41 42 42 41 40 34 39 40 38 32 23 27 30 33 30 31 30 30 30 34 34 32 32 30 29 26 21 21 24 30 27 25 26 23 24 24 25 25 34 35 38 37
42 41 41 41 42 41 35 33 38 41 40 31 27 22 25 29 32 34 32 32 33 35 34 32 30 29 29 32 25 24 25 24 23 23 23 23 24 27 27 26 35 36 34 33
43 41 41 41 41 42 37 40 42 42 35 32 28 27 27 31 33 32 33 32 33 35 34 34 32 28 29 28 25 23 22 21 22 24 23 29 29 30 26 29 34 35 33 30
43 42 41 41 39 33 37 42 42 41 36 29 30 24 20 32 31 31 32 32 30 33 31 29 26 25 25 24 22 22 22 21 21 22 27 29 27 34 31 33 33 35 31 28
43 41 32 29 34 42 41 37 34 33 34 36 30 28 24 31 31 32 30 31 27 25 27 26 27 25 24 23 24 24 24 26 30 29 29 31 30 30 34 34 35 35 30 27
34 32 32 38 40 37 33 29 29 30 28 31 30 27 27 31 30 30 30 30 29 23 20 23 22 21 31 31 31 32 32 32 32 32 32 32 32 32 32 33 33 30 27 24
37 38 40 39 35 32 29 27 30 27 22 28 27 27 27 32 33 31 32 27 29 22 33 29 21 27 27 28 28 29 29 30 30 30 30 30 31 32 34 33 29 26 24 22
37 36 34 32 31 26 24 21 23 24 30 30 30 32 34 34 33 32 30 26 23 28 28 22 25 25 25 26 27 26 27 27 27 27 28 28 28 28 27 26 24 23 21 19
33 30 26 28 26 26 25 24 25 33 33 30 31 32 30 33 30 30 24 26 29 22 22 21 23 24 23 24 24 24 24 24 24 24 24 24 24 23 24 24 22 19 18 19
27 27 23 23 26 28 30 32 31 32 34 31 31 30 30 29 28 29 27 26 23 23 20 22 24 24 23 22 22 22 23 23 21 22 21 21 21 20 19 21 20 18 17 16
22 24 23 27 25 26 27 29 28 30 31 34 32 30 28 27 27 26 23 21 19 19 22 24 21 23 22 22 22 22 22 21 21 20 18 18 17 16 16 17 17 16 15 14
21 21 25 26 24 24 25 27 26 30 30 29 30 27 25 30 24 23 22 19 20 21 22 22 22 22 22 23 22 22 22 21 19 18 17 17 17 17 15 14 15 15 15 14

GFSNW_sfc_30mbdewp_105.txt.gz
Dewpoint
36 36 37 39 39 40 39 33 26 34 39 31 31 26 24 21 18 18 17 13 6 7 8 4 4 5 7 7 6 3 5 5 5 8 12 25 30 28 29 9 12 21 19 19
35 35 38 39 40 40 37 31 29 32 36 24 26 24 21 21 19 18 17 12 7 8 7 5 4 6 9 10 7 7 9 17 18 15 8 9 21 26 31 30 19 15 16 20
36 35 36 38 39 39 38 32 24 30 33 33 28 27 25 26 24 18 16 15 10 9 8 8 7 8 9 11 12 22 21 17 14 17 19 18 14 14 19 29 27 29 27 25
36 37 37 37 38 39 37 31 26 26 21 27 28 28 25 22 26 27 19 11 10 10 10 11 10 10 9 8 9 18 19 14 14 15 14 14 12 11 10 10 16 25 26 27
34 36 37 37 37 38 35 28 28 30 28 27 25 28 25 22 20 30 27 26 23 22 12 11 17 25 24 23 26 25 22 15 16 14 12 9 10 12 11 10 10 13 14 16
33 36 37 37 37 38 35 35 33 32 24 27 25 26 22 23 28 24 17 25 24 22 21 27 28 29 29 28 25 24 25 21 19 16 15 12 11 12 12 10 8 9 9 13
36 36 37 38 38 37 37 36 35 30 22 25 24 18 19 21 28 26 23 24 22 27 30 30 28 27 25 25 24 24 24 24 24 17 20 13 15 19 15 10 10 18 34 37
36 37 38 38 38 39 37 37 34 32 25 23 20 20 25 23 21 22 22 24 27 31 28 24 20 17 19 20 21 22 23 23 22 20 18 21 18 19 24 24 26 38 36 37
37 38 39 39 38 38 38 38 38 33 28 21 23 27 30 27 23 24 22 26 32 31 27 24 18 13 19 19 25 23 22 22 22 22 18 12 14 26 26 23 24 38 38 37
38 38 39 39 39 38 38 36 38 35 29 29 25 23 24 28 30 29 26 31 28 31 27 23 18 17 17 21 23 26 21 21 20 22 20 22 23 24 25 19 28 37 35 37
37 37 38 38 38 39 38 35 38 36 32 28 28 27 26 27 28 26 32 28 31 31 25 24 22 20 21 22 21 23 26 20 21 22 20 16 28 27 23 33 34 35 36 35
37 37 37 37 37 38 39 35 36 37 34 31 34 32 32 30 27 28 30 31 31 32 29 30 29 25 25 27 23 32 26 25 24 22 20 33 36 34 38 34 33 33 32 32
38 37 37 36 38 39 39 35 33 34 34 30 30 27 30 31 29 31 27 30 28 31 34 30 29 27 31 23 26 28 32 35 31 29 31 34 34 35 33 30 29 30 30 33
38 39 39 39 38 39 39 37 36 34 34 28 26 29 30 31 31 30 32 30 31 32 30 28 29 26 28 26 25 26 28 33 32 33 35 36 37 35 31 32 30 29 38 40
39 38 40 40 39 39 40 40 39 37 32 27 29 33 33 34 32 32 29 29 30 30 31 30 28 31 28 32 30 28 29 31 30 31 35 36 34 30 32 32 33 38 41 36
38 40 40 40 40 40 39 34 38 40 37 31 25 30 29 31 34 31 31 32 30 31 34 32 32 31 29 28 26 22 25 26 26 26 30 31 28 31 34 36 37 36 35 34
41 41 40 41 41 40 34 32 38 40 38 31 27 25 27 26 27 34 33 32 33 31 32 32 31 29 30 29 24 23 25 27 26 26 25 29 31 32 34 36 34 33 31 31
43 42 41 41 41 40 36 38 43 40 35 33 26 25 28 32 30 31 35 34 33 35 33 34 32 31 30 27 28 28 27 24 23 23 31 34 33 34 37 36 34 31 30 28
44 43 41 41 39 33 36 39 43 41 35 28 28 25 18 32 31 33 33 33 30 36 30 31 31 27 25 26 28 28 31 31 31 31 33 33 32 33 35 36 33 30 28 26
43 40 34 30 34 41 40 37 34 32 32 34 28 30 24 29 30 32 31 32 29 26 29 31 26 25 30 30 31 30 31 31 31 31 31 31 32 32 33 35 34 30 27 24
36 32 32 37 41 37 33 28 28 29 27 30 31 29 27 32 26 28 31 27 28 22 24 25 25 27 29 28 28 29 29 29 29 29 30 31 31 33 33 32 29 27 24 22
36 38 40 39 35 31 28 26 29 27 23 30 29 29 29 31 33 29 31 26 27 21 29 28 24 25 26 26 26 27 26 26 27 27 28 29 28 29 28 26 24 23 22 21
37 36 33 32 31 25 24 21 23 24 27 29 31 29 32 32 33 30 29 24 21 26 25 23 22 25 24 24 24 24 25 24 23 23 24 25 25 26 26 24 23 21 20 19
33 30 26 27 24 25 26 25 26 33 32 30 32 31 30 32 29 28 23 25 28 22 21 19 22 23 23 23 23 22 23 23 23 22 21 22 22 21 21 21 20 19 18 19
28 27 23 24 27 29 30 32 31 31 34 32 30 31 29 29 26 27 25 23 20 21 17 21 23 23 23 22 22 22 22 22 20 19 18 18 18 18 18 19 19 18 17 16
23 24 25 27 26 26 28 29 28 30 32 34 30 28 26 25 26 24 21 21 17 18 21 22 22 23 23 23 22 23 21 19 18 17 16 15 15 15 15 16 16 16 15 14
22 22 24 27 25 23 25 26 26 30 31 28 28 24 21 27 25 20 21 17 19 22 21 21 22 22 22 24 22 22 22 19 17 16 16 17 17 16 14 13 13 13 13 13

GFSNW_sfc_30mbdewp_111.txt.gz
Dewpoint
38 39 38 37 37 40 37 30 19 28 38 28 26 24 23 23 23 25 24 22 21 19 17 16 13 6 12 14 13 9 10 8 4 6 13 16 24 29 30 24 23 25 25 20
37 37 36 36 36 39 35 28 26 33 30 17 19 25 26 26 20 25 24 22 21 21 20 20 12 10 15 16 14 9 15 10 2 2 18 18 21 18 14 27 30 21 23 21
38 36 36 36 37 39 33 28 17 22 31 26 26 24 22 21 25 25 23 23 22 23 22 23 19 13 16 22 19 25 23 13 4 1 11 13 7 10 8 20 16 15 19 18
36 35 35 36 38 38 35 29 22 25 19 22 26 24 22 20 22 24 24 23 24 26 23 22 11 15 23 22 28 24 23 10 13 14 15 14 12 14 14 12 12 10 6 13
34 36 36 35 37 37 33 26 24 27 26 25 23 22 21 19 20 25 25 25 26 27 26 20 19 22 23 20 24 22 23 18 19 16 17 16 16 18 17 16 15 13 11 9
34 36 37 35 37 37 31 34 32 28 22 21 21 19 20 24 30 27 28 30 29 28 27 25 26 28 27 26 25 23 22 19 17 9 17 16 11 10 14 13 13 13 10 10
34 37 38 37 37 37 32 33 33 27 20 22 23 24 24 28 27 27 24 27 27 25 30 28 25 24 25 27 26 27 21 21 19 13 14 5 9 15 15 17 18 23 15 19
36 37 38 38 38 38 34 35 32 28 20 22 23 28 26 26 26 25 26 27 29 33 28 20 18 15 16 17 20 23 27 22 17 12 10 7 8 7 20 28 28 33 21 36
36 38 39 39 38 37 36 35 35 32 25 21 26 27 25 24 25 22 24 30 32 33 25 21 16 11 15 11 16 25 25 25 20 19 13 4 11 24 26 28 24 37 35 36
36 38 38 39 38 37 37 35 36 34 28 28 28 26 26 27 26 25 27 28 30 30 24 21 20 17 17 14 16 19 24 25 20 17 13 13 17 18 28 19 27 33 36 36
37 37 38 38 37 35 37 34 38 33 29 27 28 27 26 26 26 23 25 22 28 26 24 22 21 22 24 25 23 25 24 22 20 21 16 12 29 30 26 31 34 36 36 33
36 36 37 37 37 37 39 34 37 38 33 29 34 34 34 32 31 28 28 25 29 27 24 23 23 22 24 23 20 31 23 27 24 20 17 28 36 36 37 39 36 32 32 30
36 36 37 36 37 37 37 35 36 37 32 28 28 25 27 33 34 31 27 29 30 32 33 28 26 21 26 21 24 26 29 32 29 29 32 34 36 37 39 39 37 33 37 42
35 37 36 35 36 37 37 37 36 36 32 25 24 29 29 31 31 32 31 28 30 31 32 28 27 23 26 26 25 26 30 32 30 31 32 34 35 34 34 33 37 36 36 35
35 34 35 36 37 37 38 39 37 37 30 24 25 29 26 27 29 30 30 30 28 28 28 29 26 28 29 29 29 29 33 26 27 27 31 33 34 36 37 37 36 37 34 32
36 35 34 35 37 37 38 33 39 38 35 30 23 27 28 27 31 31 31 31 30 30 29 28 31 34 29 27 26 27 30 31 30 28 33 35 38 36 35 34 32 31 30 30
37 37 37 36 37 38 33 30 31 38 37 31 25 24 27 31 30 32 32 32 31 29 30 29 29 28 29 28 23 30 30 31 32 34 35 34 36 34 33 32 31 29 28 27
38 38 38 38 38 38 37 37 41 38 34 32 24 23 26 30 28 29 35 32 33 33 32 32 30 32 32 26 30 29 28 29 30 31 32 33 34 35 35 33 30 28 26 25
39 39 39 40 37 32 35 41 40 39 32 25 25 22 18 32 31 33 35 35 28 34 29 30 31 29 26 28 27 27 27 27 27 29 30 30 30 31 33 32 30 28 25 24
42 40 33 29 34 40 38 37 32 32 32 32 26 27 22 30 30 31 31 31 29 26 30 33 29 27 29 29 28 26 26 26 26 26 26 27 27 28 30 28 27 26 24 23
33 32 31 36 38 35 33 27 26 27 25 28 28 27 24 29 26 26 32 28 28 24 24 27 26 24 25 27 26 25 23 23 24 24 24 25 26 27 27 26 25 24 23 22
35 37 38 38 34 31 25 24 25 25 21 27 26 27 28 27 32 28 30 26 25 19 29 27 23 22 24 24 23 23 23 22 21 20 21 22 23 24 26 25 24 23 22 21
38 36 32 30 29 23 21 19 23 23 26 27 30 29 28 32 33 29 28 24 21 25 24 22 20 22 22 22 23 21 22 21 18 18 19 19 20 21 21 21 22 21 20 19
33 30 25 25 21 23 22 23 22 25 28 28 30 30 29 31 27 27 23 23 26 23 20 19 19 22 21 22 22 21 20 18 16 15 16 16 17 17 18 19 20 19 17 17
29 28 21 24 24 28 30 31 30 30 30 30 29 29 29 28 26 25 22 21 18 19 17 17 20 22 22 22 21 20 18 16 14 13 13 13 13 14 14 16 17 16 15 15
22 21 24 27 26 26 27 28 28 29 31 30 29 26 24 24 23 22 19 19 17 15 17 19 21 20 20 21 21 19 17 15 13 13 13 13 13 12 12 12 13 13 13 12
20 20 22 23 23 21 23 24 24 29 30 27 25 22 20 24 22 18 17 14 16 18 19 20 21 19 19 19 19 19 16 14 14 13 12 12 11 10 9 9 10 10 10 10

GFSNW_sfc_30mbdewp_114.txt.gz
Dewpoint
38 38 38 36 36 40 35 28 12 29 36 24 25 22 23 25 24 23 24 23 22 20 19 18 17 15 11 13 14 10 14 13 8 7 18 19 29 28 28 19 22 24 23 20
38 37 37 37 36 38 33 27 27 31 29 17 17 23 24 24 22 19 24 23 22 21 20 18 22 20 17 18 13 13 20 14 5 10 18 13 18 12 24 27 27 20 18 16
38 37 36 36 37 40 32 25 16 20 28 24 24 23 21 22 23 22 23 23 23 22 21 22 21 21 20 22 20 27 24 17 9 4 8 11 5 10 11 21 15 12 17 10
37 36 35 35 37 38 32 27 20 25 18 20 24 23 21 18 19 24 26 24 23 23 23 23 23 22 19 19 26 23 23 11 12 13 14 14 12 12 14 12 12 9 3 5
36 34 36 35 36 38 31 26 23 27 24 25 22 21 20 16 17 25 24 25 25 27 25 24 24 21 23 17 23 21 23 15 19 14 16 16 15 17 17 16 15 14 13 11
36 35 36 37 36 36 31 32 32 26 21 21 21 18 18 21 24 27 30 30 27 27 28 31 30 28 26 24 21 21 20 16 17 10 16 15 8 10 13 14 15 14 11 12
35 34 36 38 36 36 31 31 31 26 18 22 21 22 24 26 28 27 27 28 27 28 32 31 28 27 27 27 27 27 21 21 18 13 14 4 3 14 11 11 13 15 15 15
34 35 37 38 37 38 33 34 30 26 20 21 21 22 26 26 26 25 25 26 28 32 31 21 18 15 13 15 20 23 27 22 16 12 12 8 8 6 10 25 23 25 26 28
33 37 37 38 38 38 35 34 34 32 23 19 24 25 25 25 25 24 23 28 31 30 25 21 16 12 13 11 12 25 26 25 18 17 13 6 6 17 30 30 15 32 35 36
35 36 38 38 38 37 36 35 35 33 26 26 27 25 25 27 26 24 24 27 25 28 24 21 19 18 19 15 15 20 24 24 20 19 17 14 15 13 25 16 17 34 35 37
35 36 38 38 38 37 37 35 37 33 28 27 26 27 25 26 26 23 23 22 24 23 21 21 21 21 23 24 21 24 23 21 21 21 17 11 32 31 26 34 37 37 38 37
36 37 37 38 37 37 39 35 37 37 32 27 33 33 33 31 30 28 28 24 27 26 24 23 23 21 22 23 18 30 21 26 23 24 18 31 34 36 38 36 37 37 32 32
37 36 37 37 37 38 40 36 38 36 31 31 29 27 26 33 33 32 26 27 29 30 32 29 26 21 24 19 22 25 28 32 28 28 31 32 34 36 37 38 37 39 41 40
36 36 37 37 37 38 38 37 37 35 32 25 23 28 27 29 31 33 32 28 30 32 32 26 26 23 26 24 23 25 29 31 28 29 32 33 35 36 36 38 38 35 33 33
37 36 36 37 35 36 38 38 37 36 31 24 25 28 26 27 29 30 32 31 29 27 26 25 24 29 28 28 29 28 30 30 28 27 32 33 34 38 36 34 33 34 31 30
35 34 35 35 36 37 36 32 37 38 35 30 22 26 26 27 28 28 30 30 29 29 28 26 28 31 28 26 25 29 29 30 33 31 34 38 37 35 34 32 31 30 30 29
36 36 35 35 36 37 33 31 32 38 37 30 22 23 26 30 31 31 31 31 30 29 30 28 27 28 30 26 22 29 29 29 32 31 32 32 32 34 35 32 30 28 27 26
35 35 36 37 37 38 35 37 40 38 35 32 22 22 24 30 27 27 33 31 32 32 30 32 29 31 30 25 29 28 27 27 27 26 29 29 30 30 31 32 29 26 25 24
36 36 37 38 37 33 35 39 40 39 33 25 23 20 16 30 31 32 34 34 28 33 29 30 31 28 25 27 26 26 26 25 25 25 27 26 27 27 28 28 28 26 24 23
37 38 32 29 33 39 40 37 32 31 32 32 25 25 21 29 32 31 31 31 29 25 29 33 28 25 28 28 27 26 23 23 24 23 23 23 23 25 27 27 26 25 24 23
36 31 30 34 40 35 32 26 26 27 25 27 27 26 23 28 23 26 31 28 28 23 25 27 26 23 24 26 26 25 23 22 21 20 21 22 23 23 24 25 25 25 24 22
34 36 38 38 33 30 25 22 23 22 20 25 25 27 27 26 31 28 30 27 25 21 29 26 23 21 23 22 23 21 22 19 17 18 18 19 20 21 21 23 22 22 21 20
38 35 31 30 28 22 19 17 20 21 25 27 28 27 28 29 32 28 27 24 21 25 23 22 19 22 21 22 21 20 20 18 15 15 16 16 17 18 18 18 19 20 19 19
32 29 24 23 21 22 21 20 21 24 25 27 29 28 29 31 27 28 23 23 25 22 19 18 19 21 21 22 21 20 18 16 14 13 13 13 14 14 15 15 17 16 15 16
30 29 20 24 22 27 28 29 28 29 30 29 30 29 29 27 25 25 22 20 18 19 17 16 20 21 21 21 20 19 17 14 13 12 11 11 11 11 11 13 14 14 13 13
22 22 23 26 26 26 27 29 28 29 31 30 29 26 25 25 24 22 19 18 16 15 16 19 20 19 18 20 19 18 16 13 12 12 11 11 10 10 9 9 10 11 11 11
19 19 21 23 22 22 22 23 23 26 30 28 25 22 21 23 22 19 15 14 13 17 18 19 20 19 18 18 18 17 16 14 13 11 11 10 9 8 8 8 8 9 10 10

GFSNW_sfc_30mbdewp_117.txt.gz
Dewpoint
38 38 38 36 36 39 33 26 14 27 33 21 25 20 24 24 22 22 19 24 23 21 20 18 17 15 15 18 17 9 16 16 12 9 21 24 28 28 28 18 20 24 20 16
38 37 37 37 37 37 31 25 25 29 28 17 17 20 22 23 22 20 22 22 22 22 19 16 18 20 22 20 20 14 20 17 11 16 20 18 13 9 26 27 24 22 17 10
37 38 37 36 38 38 30 23 13 21 27 24 22 22 19 19 21 18 19 20 22 21 20 21 21 20 21 23 20 25 24 15 13 12 13 13 10 11 11 18 11 13 13 11
38 37 36 35 38 39 30 25 21 26 17 20 22 21 19 17 17 21 26 24 24 24 22 21 20 21 23 23 19 25 19 11 11 10 12 14 13 11 11 9 8 4 2 3
38 36 35 35 38 37 29 23 22 27 23 24 21 20 18 17 20 24 23 25 24 26 24 25 23 27 23 20 20 24 23 11 16 15 14 12 12 14 16 14 13 13 11 10
36 35 36 36 38 35 29 31 31 23 21 21 20 19 19 19 25 24 26 29 27 27 28 29 29 31 30 28 26 22 20 17 12 5 9 12 9 10 11 11 13 12 7 7
36 35 36 37 38 34 30 31 30 23 17 21 20 20 20 23 24 25 25 26 24 23 30 32 30 31 30 29 28 28 21 20 18 11 13 4 5 12 12 11 12 14 14 15
35 35 35 37 38 37 32 34 29 25 18 21 20 21 24 23 25 25 25 26 25 31 31 23 19 17 16 15 21 22 26 22 17 12 9 7 7 6 5 8 9 23 26 31
35 35 36 38 38 39 34 33 33 29 21 18 23 25 23 23 23 22 24 26 30 29 26 22 17 13 15 13 15 25 25 26 19 17 11 7 6 23 25 26 11 33 34 34
34 35 38 38 38 39 35 33 35 32 25 25 25 23 24 26 25 23 24 25 25 28 23 20 18 16 20 18 19 22 24 24 19 18 17 18 18 27 26 9 18 35 35 34
34 35 37 38 38 38 36 34 36 33 28 27 26 27 24 24 24 21 24 22 22 24 20 21 19 20 18 20 22 22 22 21 21 22 18 14 33 28 24 31 35 36 38 37
35 36 38 38 38 38 37 32 37 37 32 28 32 32 31 28 27 26 27 25 25 26 24 22 23 20 22 20 17 29 21 25 23 25 19 29 33 33 36 39 35 36 38 40
34 37 37 37 38 39 38 36 37 36 31 30 29 27 29 33 33 32 24 25 26 29 32 29 27 21 23 19 19 25 25 31 27 28 32 33 34 36 36 37 37 37 35 36
35 37 37 37 38 39 40 36 38 36 32 24 23 27 26 28 31 32 31 27 30 31 31 27 25 21 25 23 22 23 29 31 28 28 32 32 35 34 36 35 35 33 32 32
35 37 37 37 38 39 39 38 38 37 29 24 25 28 26 28 29 31 32 31 29 28 27 26 23 26 28 27 28 27 30 28 25 25 29 30 30 31 33 33 32 32 31 30
36 36 36 36 36 37 35 31 36 38 36 29 22 25 26 28 28 30 31 31 30 29 28 27 28 30 26 24 24 29 29 30 29 27 31 32 33 35 34 31 31 30 28 28
35 35 35 35 36 37 31 28 33 38 37 29 23 20 24 29 30 29 30 31 30 29 29 29 27 27 30 26 21 28 27 26 27 26 28 27 29 30 33 30 29 27 26 26
34 35 36 36 36 37 34 35 38 39 34 32 22 20 23 29 27 28 32 30 31 31 30 31 29 30 29 24 27 26 25 25 25 24 26 27 29 29 30 29 28 26 25 24
34 35 35 37 36 32 34 37 39 39 34 24 22 19 15 29 32 33 34 33 27 33 27 29 30 27 25 26 25 24 23 22 22 22 23 23 23 25 26 26 26 26 24 24
36 35 33 29 33 39 39 37 32 30 32 31 24 24 20 27 31 30 30 31 29 24 29 32 27 25 26 26 25 24 21 20 20 18 19 20 21 22 23 25 25 25 25 23
34 31 30 33 39 36 32 28 26 27 24 26 25 25 22 27 22 23 30 28 28 23 26 27 26 22 23 25 25 22 21 18 17 17 18 19 20 20 20 22 22 22 21 21
34 36 38 38 32 29 25 22 23 22 20 25 24 24 26 26 31 28 30 27 26 21 29 26 23 20 23 22 21 20 20 16 15 15 16 16 18 18 18 19 19 20 20 20
38 35 31 29 28 22 19 16 18 20 23 26 27 26 28 28 32 29 28 24 22 25 23 22 19 21 21 21 20 19 18 15 13 13 13 14 15 15 15 16 17 19 18 18
29 28 23 24 20 22 20 19 20 23 25 27 28 28 28 30 28 28 24 24 25 22 19 18 18 20 20 21 20 18 16 14 13 12 12 12 12 13 13 13 14 15 15 15
28 30 22 23 22 25 25 26 27 28 27 29 29 29 30 27 26 26 23 21 19 19 17 16 20 20 19 20 19 18 16 14 13 12 11 10 10 10 10 10 12 13 13 13
25 22 23 25 25 26 28 28 27 29 29 30 28 26 26 25 24 22 20 18 16 15 16 19 20 19 18 19 18 18 16 14 12 11 11 10 9 9 9 9 9 10 11 11
20 19 20 23 23 23 22 23 24 25 30 29 25 23 22 24 22 19 15 16 13 17 18 19 20 19 18 18 17 17 16 14 13 11 11 10 8 8 8 8 9 10 10 10

GFSNW_sfc_30mbdewp_123.txt.gz
Dewpoint
37 37 38 37 36 38 36 26 28 28 34 22 15 11 11 15 9 15 13 13 13 12 11 8 6 5 6 8 10 10 9 16 4 2 11 23 25 26 31 27 17 17 13 13
38 39 38 37 38 36 28 27 19 26 33 23 16 16 14 14 13 11 11 9 9 10 10 9 7 6 8 12 13 12 19 12 11 4 -1 22 24 25 26 28 29 24 19 22
37 37 37 37 39 36 33 29 25 21 23 19 18 17 12 10 13 11 11 12 14 16 16 14 16 12 13 20 19 21 20 15 10 6 3 23 14 24 21 17 18 20 26 28
38 38 37 36 39 37 33 35 22 23 24 19 15 15 12 14 13 15 16 14 18 20 18 15 15 20 22 16 19 19 18 13 14 9 4 1 2 6 14 17 18 15 12 16
37 38 37 36 38 38 31 32 23 21 17 18 17 15 13 11 13 17 19 20 21 21 18 21 22 18 18 21 23 19 16 22 15 9 6 4 -1 1 6 10 11 12 11 9
39 37 36 37 39 37 28 26 28 24 19 18 16 16 15 15 22 20 20 23 24 18 16 19 21 23 22 22 21 20 20 17 12 10 7 7 0 -2 -1 2 5 10 5 7
37 36 36 37 39 36 27 27 23 27 17 14 13 14 15 19 19 19 18 18 17 18 23 24 23 20 20 21 19 20 19 17 16 14 11 7 3 1 0 3 4 4 4 1
37 37 37 38 39 35 30 30 27 24 18 13 12 15 18 17 17 18 17 18 20 25 23 21 15 10 12 12 17 14 15 16 14 14 12 13 8 18 12 11 9 6 7 9
38 37 37 38 39 37 32 30 30 26 23 14 15 16 17 14 13 15 17 20 23 25 20 18 14 11 11 13 21 28 28 29 23 15 17 10 18 15 17 17 13 27 30 30
38 37 37 38 39 39 34 30 34 26 26 19 20 17 17 20 19 17 16 20 21 21 19 18 14 9 12 13 18 18 20 23 23 18 19 14 29 24 23 18 24 33 34 35
39 37 37 38 38 39 37 31 33 28 27 25 24 23 21 20 19 16 19 20 25 20 18 17 14 16 19 20 19 24 22 20 18 23 20 18 33 27 28 33 32 35 36 34
38 38 38 38 38 40 38 32 32 33 30 27 31 29 27 24 22 22 20 20 19 21 22 21 21 20 18 21 18 27 22 26 23 26 24 32 33 31 33 34 36 35 34 34
39 37 38 38 38 39 38 34 34 35 31 29 26 23 26 29 29 28 22 18 22 20 28 26 24 18 15 18 17 23 28 32 27 28 28 29 31 32 32 32 31 33 35 32
39 38 38 39 38 39 39 36 34 33 30 25 22 23 25 26 26 28 28 25 24 25 26 25 22 20 20 18 19 21 29 31 26 29 28 27 31 32 32 33 33 34 36 31
37 38 38 38 38 39 38 38 36 34 30 28 24 23 24 25 25 25 26 27 26 23 27 25 22 20 21 21 20 27 26 27 25 24 29 28 30 33 30 32 30 30 29 29
37 37 37 38 38 40 38 32 35 35 36 28 23 21 22 23 25 24 25 25 26 25 27 24 24 23 25 24 19 28 27 32 30 27 26 27 30 31 28 29 28 29 27 27
37 36 37 38 38 35 33 31 36 35 36 30 23 20 22 26 27 28 26 26 25 25 28 26 23 22 29 25 19 29 26 27 28 26 26 26 25 25 26 26 26 26 26 26
36 36 36 37 38 35 31 36 39 37 33 29 23 21 20 26 26 29 28 27 29 29 26 25 25 27 29 24 27 25 23 23 25 21 24 23 23 23 23 24 24 25 24 24
36 35 35 35 34 33 30 39 38 37 35 27 24 21 21 28 26 32 31 34 27 27 28 25 26 25 26 27 25 23 22 20 19 19 21 20 21 21 21 21 22 23 23 23
36 36 34 29 33 37 36 36 33 32 32 31 25 22 20 20 28 29 29 32 28 26 26 28 28 24 26 25 24 23 20 18 17 17 17 17 18 19 19 20 21 21 21 22
35 31 28 34 38 34 33 29 26 26 25 26 23 20 20 22 22 23 23 27 30 24 27 26 26 26 24 24 23 22 19 16 15 15 15 16 17 17 17 18 19 20 20 20
31 32 36 34 31 30 25 23 24 23 16 20 23 22 21 23 25 24 27 24 29 22 29 27 21 22 22 21 20 19 16 14 13 13 13 13 14 15 15 16 17 17 19 20
36 33 31 29 28 23 19 17 20 18 21 24 25 26 25 27 27 26 28 25 22 26 24 20 21 21 21 20 18 16 14 15 13 12 12 13 13 14 14 14 15 17 17 18
28 27 23 24 23 21 16 15 16 21 26 26 26 27 27 29 27 28 25 25 26 22 19 21 22 21 20 19 17 15 15 16 17 16 13 13 13 13 14 14 15 15 15 16
27 28 20 23 25 27 30 30 26 28 29 28 28 28 28 28 27 27 26 25 20 19 23 23 22 20 19 18 18 18 18 18 17 17 16 15 14 13 13 14 14 14 14 15
29 28 26 29 28 28 29 31 31 31 29 29 28 28 25 26 26 26 22 20 17 24 23 23 21 20 20 20 20 20 19 19 18 18 16 16 14 13 13 13 15 13 15 13
27 26 27 27 28 29 29 32 31 32 30 27 27 25 23 27 23 21 23 24 24 22 22 23 23 21 21 21 20 20 19 18 18 17 16 15 14 14 15 12 14 12 13 13

GFSNW_sfc_30mbdewp_126.txt.gz
Dewpoint
37 37 38 37 36 37 35 29 30 29 35 28 17 13 10 12 8 13 13 13 12 9 8 6 5 4 4 9 10 8 6 14 11 8 7 14 15 31 31 22 23 22 20 18
37 37 39 37 37 36 35 29 18 27 35 26 17 13 13 12 12 9 9 8 7 9 10 13 12 12 19 21 24 11 17 22 17 13 12 15 22 22 23 28 29 23 23 21
37 38 38 37 38 37 34 29 26 22 24 18 18 16 12 10 13 10 9 10 12 16 14 13 13 16 20 22 28 28 25 14 10 8 7 21 12 13 13 23 20 19 17 24
38 38 37 36 39 37 35 37 28 26 25 19 16 16 13 14 12 13 13 13 16 16 17 15 13 16 15 15 18 28 27 16 10 9 12 6 1 1 3 6 20 16 18 18
37 38 37 36 37 38 34 32 19 23 19 18 17 15 14 10 11 15 18 17 18 19 18 18 17 16 17 17 17 24 26 24 26 23 16 9 7 9 2 -1 6 12 13 15
38 38 37 36 37 37 29 26 27 25 18 19 18 18 14 14 21 19 16 19 20 15 17 19 21 22 22 22 21 18 18 17 16 14 11 11 6 3 2 -3 -1 3 7 12
39 37 36 37 39 38 35 29 23 28 20 16 16 14 14 16 20 18 16 15 15 17 21 22 20 19 19 24 29 26 19 21 18 15 13 9 10 19 15 1 3 4 3 4
38 37 37 37 39 38 35 30 27 27 19 15 12 13 14 16 15 17 16 15 19 22 22 19 15 18 17 23 25 22 22 23 19 16 10 9 11 25 17 13 10 27 28 30
39 37 38 38 39 38 36 33 34 27 27 14 13 11 14 15 14 14 16 18 22 23 20 18 13 18 13 15 16 19 20 24 26 17 17 10 26 28 28 22 14 35 32 33
39 38 37 38 39 39 36 33 36 29 30 19 17 16 18 17 17 15 15 20 21 20 20 19 14 10 16 13 17 19 21 20 21 22 19 23 28 30 27 21 23 35 34 33
39 37 37 38 39 39 37 33 33 31 28 26 21 22 21 18 17 15 21 21 23 21 19 18 16 17 19 20 18 24 22 20 17 21 17 15 30 26 23 27 32 32 33 34
39 38 38 38 38 39 38 32 32 33 29 28 31 29 27 24 23 23 20 19 18 21 21 23 22 19 18 16 17 27 20 26 24 25 24 31 31 30 32 32 31 31 33 35
38 39 38 38 38 39 39 35 34 32 30 30 26 24 26 28 26 27 23 22 23 27 25 24 24 19 15 16 19 20 26 32 26 26 28 27 31 33 33 33 32 34 35 33
40 38 39 39 38 39 39 36 33 32 29 26 25 24 24 26 26 27 27 26 26 23 22 22 22 19 18 18 17 19 29 31 26 27 29 26 29 32 32 34 34 31 29 30
40 37 38 39 38 39 38 40 38 35 32 29 26 25 23 24 25 24 25 26 25 24 23 26 22 19 19 20 21 29 26 27 25 24 30 29 30 32 28 28 27 28 26 27
39 39 38 39 39 40 38 34 34 34 32 29 23 25 24 23 22 23 24 24 24 25 25 24 22 22 24 24 20 29 27 30 30 29 27 32 27 26 25 25 26 29 25 25
38 38 38 39 39 39 35 32 36 34 35 30 24 21 22 23 25 24 23 24 24 24 28 25 22 21 25 25 20 32 24 25 28 24 24 24 23 23 23 23 24 25 24 24
38 38 38 38 38 37 35 36 37 35 32 28 23 21 20 24 22 28 29 28 29 29 25 25 24 25 30 25 29 24 23 22 23 20 22 21 22 22 21 21 22 22 22 23
37 36 36 35 33 32 33 37 37 37 34 28 25 21 23 27 25 34 34 31 28 27 27 25 24 25 26 29 25 24 22 20 19 19 20 18 19 19 19 20 20 21 21 22
35 36 34 29 33 38 37 34 32 31 32 30 25 23 22 20 28 32 28 32 27 27 27 27 27 24 26 25 24 23 20 18 17 16 16 16 17 17 17 17 19 19 20 20
35 31 29 33 37 31 29 28 27 26 24 25 23 21 19 20 22 25 28 28 29 24 26 27 25 26 26 24 24 22 18 16 15 14 14 14 15 15 15 15 17 17 18 19
33 32 34 34 28 29 25 24 23 22 17 20 23 22 20 23 25 24 27 25 28 20 31 28 22 23 23 22 21 19 16 14 13 13 13 13 13 14 15 14 15 16 18 19
34 30 30 29 27 22 19 16 19 18 20 26 25 25 26 29 27 27 28 24 22 26 25 20 22 22 21 20 19 16 16 17 15 14 14 14 13 14 15 14 15 16 16 17
30 27 22 23 22 20 16 15 16 22 26 27 28 27 27 28 26 27 22 24 27 21 20 21 22 21 21 20 18 16 17 18 18 18 15 15 14 14 16 15 16 15 15 16
27 28 21 22 24 26 29 29 26 25 29 28 30 28 29 28 26 26 25 25 20 20 23 26 24 22 20 20 20 20 20 19 19 19 18 18 15 15 15 15 17 13 17 14
28 27 25 28 27 30 30 32 33 33 31 30 29 27 25 25 25 25 22 19 19 25 25 24 22 21 22 21 21 21 20 19 20 21 19 18 17 15 15 19 18 14 17 13
26 25 30 29 30 28 30 33 33 33 33 28 26 25 21 24 22 21 25 24 25 24 25 25 24 24 23 21 22 22 20 20 21 18 17 17 18 16 18 14 17 14 18 15

GFSNW_sfc_30mbdewp_132.txt.gz
Dewpoint
42 41 38 36 35 36 35 35 26 33 39 32 33 13 15 9 12 14 14 14 9 8 9 11 15 14 17 22 23 19 22 20 15 14 16 22 20 21 26 21 18 23 23 21
42 39 37 36 35 36 35 30 20 32 37 24 13 15 14 13 11 10 9 8 9 10 15 13 16 16 20 21 19 19 23 19 14 9 11 18 15 17 19 24 26 19 17 10
39 38 38 36 35 37 34 32 17 26 31 27 16 16 16 12 14 10 8 9 16 16 15 18 17 19 19 20 19 24 27 23 18 14 18 20 19 16 16 16 18 15 14 15
38 37 38 36 35 37 37 37 26 25 21 20 19 16 14 14 14 14 14 18 19 19 17 19 18 18 19 19 21 26 24 21 21 21 21 20 20 19 15 12 11 11 10 13
36 38 37 36 37 37 35 29 24 27 23 21 17 17 16 14 15 16 18 16 18 21 21 18 17 18 19 20 22 22 28 22 23 21 19 17 14 24 25 26 27 22 23 27
39 38 36 37 38 37 34 32 30 23 21 19 16 18 17 19 18 19 20 16 18 20 19 20 20 22 23 22 22 25 29 26 21 16 17 18 18 23 26 28 29 29 24 29
38 37 36 38 38 37 36 35 33 21 19 19 20 20 18 16 21 18 17 19 19 20 23 24 24 26 27 28 27 30 24 22 24 20 19 11 21 22 27 27 26 28 29 29
38 37 38 39 38 38 35 36 33 29 20 19 18 18 18 18 23 17 17 19 21 22 23 21 18 21 21 22 25 26 29 23 22 19 17 17 15 20 23 23 24 27 27 29
38 38 38 38 37 38 37 36 38 33 18 15 18 16 16 16 17 18 20 23 25 24 23 20 16 14 16 15 17 20 23 26 23 21 17 13 21 24 25 24 20 28 30 29
38 38 38 38 38 40 36 33 37 32 20 24 19 15 16 19 21 20 22 22 20 24 22 19 17 16 20 16 15 20 20 19 18 19 17 21 26 27 25 14 17 29 31 30
38 38 39 38 39 39 34 32 36 31 28 30 29 28 23 24 24 21 23 24 21 19 20 20 19 19 18 16 21 22 21 19 18 19 13 11 30 25 20 26 30 30 31 30
38 38 39 39 39 40 35 29 35 34 30 29 31 30 30 27 26 24 24 22 22 24 22 22 21 21 20 17 16 26 18 24 22 23 23 29 32 30 31 31 30 30 31 31
39 39 39 39 39 39 36 33 34 32 27 28 25 19 27 29 27 28 25 27 27 23 27 23 23 21 20 14 16 19 27 31 25 25 27 29 30 32 32 32 32 32 28 28
40 40 39 40 40 39 38 36 37 33 30 25 26 30 27 29 28 27 28 27 27 28 25 22 21 20 22 19 19 19 24 31 26 26 28 29 31 31 31 29 31 27 27 26
40 39 39 40 39 39 38 37 38 36 29 25 26 27 27 29 29 27 28 27 26 25 22 23 20 24 21 22 23 25 29 26 21 22 28 28 29 30 29 26 28 25 25 25
40 39 39 40 41 37 33 31 35 34 34 24 24 28 25 27 26 27 27 27 27 25 24 24 26 26 22 23 23 27 27 29 28 27 30 30 29 24 25 24 25 24 24 24
40 40 40 40 39 36 33 31 34 35 34 26 20 22 27 27 26 26 26 27 26 26 25 25 25 23 24 23 21 28 27 29 30 29 24 25 21 20 22 22 22 22 21 22
40 40 40 40 39 37 34 36 36 36 32 28 21 20 23 26 25 25 31 27 28 28 26 26 24 25 25 23 28 22 23 21 20 19 21 20 19 18 19 20 20 19 19 20
38 39 38 33 33 32 34 37 38 37 30 24 20 21 21 28 32 32 32 30 25 28 24 23 25 25 26 27 25 21 20 20 19 18 18 17 17 17 17 17 17 17 17 19
37 33 26 23 31 39 35 32 29 27 29 28 22 25 23 28 30 30 28 28 26 23 25 27 25 26 25 24 21 18 17 16 17 16 14 15 15 15 15 15 16 15 17 17
31 29 31 34 38 32 29 24 22 24 21 25 25 24 22 26 24 26 29 26 24 23 24 25 26 25 26 20 17 17 16 16 15 15 15 15 15 15 15 14 14 14 14 14
30 34 35 34 30 26 21 20 22 24 20 24 23 24 23 22 28 24 27 24 25 19 30 26 23 25 28 18 17 17 16 16 15 15 14 14 14 15 15 13 13 12 14 14
34 30 28 23 25 18 16 17 21 20 22 24 25 25 23 27 27 25 23 22 20 25 25 23 23 27 24 18 17 17 18 17 16 16 16 14 13 14 15 15 15 13 13 14
24 23 20 20 19 19 19 19 19 22 25 26 26 26 25 27 24 25 19 19 24 22 20 21 22 20 20 19 19 18 18 18 17 16 17 15 13 14 14 14 15 13 12 14
24 24 15 19 22 25 29 30 28 31 29 27 25 26 25 25 23 25 22 21 18 20 20 23 23 21 21 20 20 20 20 19 19 17 17 16 14 13 14 15 16 15 12 13
27 24 22 24 25 26 27 28 30 31 32 31 29 24 21 22 21 22 18 19 18 22 24 23 22 22 22 21 20 19 20 20 20 18 17 16 15 14 14 14 15 15 15 14
25 24 26 25 28 28 28 30 29 30 30 29 29 24 19 22 23 21 24 21 23 23 23 24 23 21 21 21 19 19 21 20 16 15 16 17 17 13 12 10 12 14 14 15

GFSNW_sfc_30mbdewp_135.txt.gz
Dewpoint
46 44 41 39 38 38 35 35 27 33 39 32 32 18 11 12 13 15 14 12 9 8 15 11 14 13 16 22 22 17 21 20 17 13 15 18 19 21 25 19 15 21 20 17
43 41 40 38 38 36 34 28 28 35 37 27 17 15 13 14 11 11 9 10 11 15 15 12 16 18 20 20 17 16 22 18 14 11 12 20 16 18 19 26 26 19 16 13
42 41 39 37 37 37 36 26 20 30 33 32 16 15 14 11 14 10 12 17 18 16 15 18 17 17 19 19 19 23 27 22 17 13 14 18 20 21 21 19 16 16 15 14
41 39 38 37 36 37 37 35 23 27 25 23 19 17 16 13 13 14 19 19 18 17 16 18 18 18 18 19 22 27 24 20 21 20 21 21 21 22 24 22 22 20 20 25
40 38 37 36 36 38 36 33 28 29 25 22 16 18 16 15 15 18 18 16 21 21 18 18 16 17 18 18 22 22 27 22 24 22 23 22 20 21 24 25 25 25 24 24
39 38 37 36 37 38 34 34 32 25 23 18 15 17 19 16 16 19 16 17 18 19 20 21 19 20 20 21 21 23 28 26 22 17 19 19 19 21 23 26 26 27 22 27
39 37 37 38 38 38 35 34 31 23 18 18 20 21 20 18 18 18 20 20 18 19 22 24 25 25 25 26 26 26 26 23 23 19 19 12 21 21 22 26 25 25 26 27
38 36 38 39 38 38 35 36 33 24 20 21 21 18 18 23 23 16 19 19 20 22 24 20 20 21 21 24 26 27 30 24 22 18 18 18 18 21 22 22 23 27 27 28
38 39 39 38 38 38 36 35 37 26 20 17 20 17 19 19 18 17 21 24 26 23 22 20 16 13 16 16 16 20 22 23 22 20 16 13 22 24 27 26 19 28 29 27
38 38 38 39 40 39 34 34 37 25 22 27 19 16 17 20 21 21 21 21 20 24 20 18 16 16 20 16 13 19 19 19 17 18 15 19 26 27 26 15 16 29 30 29
39 39 39 41 39 38 33 32 36 28 28 29 28 26 22 23 23 20 22 21 19 20 19 17 18 19 19 16 19 20 19 18 18 18 14 9 29 25 19 26 30 30 30 30
40 40 40 41 39 35 32 29 34 34 28 28 31 30 29 25 25 23 24 21 22 23 21 21 21 21 21 16 14 24 18 22 22 21 22 28 31 29 31 31 30 30 30 30
40 40 41 40 40 36 34 33 33 28 26 26 20 19 28 28 27 28 24 26 28 24 25 22 23 19 20 15 15 19 23 29 25 24 26 29 29 32 32 32 31 31 28 27
41 41 41 40 39 39 37 35 36 30 28 23 27 30 27 28 27 28 28 27 28 26 24 21 20 19 22 19 19 19 19 29 27 24 28 29 30 30 31 30 30 26 26 26
40 41 40 40 39 38 36 35 35 34 26 25 25 27 28 28 28 27 27 27 25 24 22 22 19 23 22 22 23 21 29 27 21 18 27 26 29 29 29 27 25 25 24 24
40 40 40 40 37 34 32 25 33 35 30 23 21 27 26 28 28 27 27 27 26 25 23 23 25 26 21 21 22 26 27 28 27 27 30 29 27 24 24 25 23 23 22 22
40 41 39 38 36 36 32 28 32 35 32 22 21 23 25 27 26 27 26 27 27 25 25 25 24 24 25 22 21 24 28 29 29 25 30 21 21 21 21 21 21 20 20 20
41 40 39 39 38 36 32 36 37 35 29 25 19 21 24 26 24 25 30 26 28 27 26 26 24 25 24 20 24 24 26 21 20 20 20 20 19 19 19 18 18 17 17 19
40 39 34 31 32 31 33 38 34 34 28 21 19 20 20 30 30 31 31 28 23 27 25 23 24 23 23 24 24 22 21 21 18 18 17 17 17 16 16 16 15 14 15 16
36 31 24 24 33 38 33 29 23 25 26 26 22 24 25 27 29 28 27 28 26 22 23 27 24 24 25 23 21 18 18 20 18 16 15 15 15 15 15 14 14 13 13 14
29 29 29 34 38 30 26 22 21 22 18 24 24 24 23 27 25 27 27 23 25 21 24 23 24 24 24 19 17 17 16 16 15 15 15 15 14 14 14 12 12 11 12 13
30 34 35 34 28 24 19 19 23 23 17 24 21 22 23 22 28 25 27 25 25 20 29 25 22 26 19 18 19 16 16 15 15 15 14 14 13 14 14 12 13 13 12 14
32 28 26 22 24 15 13 14 20 19 23 24 25 23 21 27 26 24 22 22 19 25 24 22 23 27 20 19 17 17 17 17 16 16 15 14 13 13 14 15 15 15 12 12
23 21 19 14 17 17 18 19 20 22 23 25 26 26 25 26 24 23 18 19 23 20 18 20 22 24 19 18 17 17 17 17 17 17 16 14 13 14 14 14 14 14 14 12
25 19 13 18 21 25 27 28 29 30 28 26 25 25 23 24 22 24 21 20 17 18 19 22 22 20 19 19 19 19 19 17 16 16 16 15 14 13 13 14 14 15 13 12
26 23 22 24 25 26 27 30 29 30 30 29 26 22 21 22 21 20 17 17 15 17 23 23 23 22 21 21 21 20 19 19 18 17 17 16 15 14 13 9 13 13 13 14
24 23 26 25 26 26 27 29 28 30 30 28 27 22 18 23 21 19 21 19 21 22 23 24 24 23 21 19 19 19 20 20 16 15 15 16 14 11 10 10 13 11 9 13

GFSNW_sfc_30mbdewp_141.txt.gz
Dewpoint
45 47 49 47 44 39 36 34 28 36 41 29 28 21 20 13 12 16 12 13 11 9 9 11 12 15 19 22 18 14 20 17 8 9 16 17 19 19 21 16 14 19 17 10
45 47 49 45 41 40 38 33 32 39 37 24 26 25 15 14 14 14 10 10 12 17 14 11 17 19 19 17 16 17 22 18 5 9 13 19 18 20 22 23 24 17 14 8
45 46 47 43 41 40 38 33 27 33 35 32 24 18 13 11 14 14 15 17 18 17 15 19 18 18 21 20 18 25 25 18 11 -0 6 15 15 18 20 22 18 14 15 15
45 46 46 43 42 42 36 32 28 28 25 27 24 17 14 12 10 18 20 17 16 15 16 17 16 18 16 22 29 27 24 19 20 20 20 20 20 20 21 21 21 19 16 20
46 47 45 42 42 43 36 28 26 28 22 23 27 19 14 12 17 18 17 16 18 16 16 15 16 15 17 18 23 22 27 20 24 20 20 22 21 21 19 22 24 23 21 21
47 45 43 41 42 41 35 34 31 26 22 26 22 17 16 16 19 20 20 21 19 16 18 20 19 17 20 22 21 26 26 23 21 14 19 20 17 20 18 19 25 24 20 24
45 43 42 42 42 40 35 32 29 27 22 24 18 19 17 18 18 18 23 21 16 22 25 26 24 22 21 21 22 27 25 24 23 17 18 11 19 22 21 22 24 25 24 24
44 43 42 41 40 38 36 36 27 25 22 20 22 21 20 22 22 21 19 20 22 25 23 23 21 21 22 25 26 24 26 24 20 17 15 16 22 21 22 21 22 26 25 24
42 41 42 41 41 39 37 37 34 29 22 20 22 20 21 18 18 20 23 25 25 24 22 19 16 16 17 20 20 25 26 25 20 20 14 12 20 24 26 27 17 27 28 26
41 41 40 41 42 40 35 35 35 27 23 27 23 19 18 21 21 21 22 21 20 24 20 19 16 16 18 16 12 18 19 19 17 17 14 15 23 26 27 18 20 28 30 29
41 40 41 41 42 38 33 32 35 28 27 28 26 24 22 23 23 18 22 17 18 21 17 17 19 18 19 18 17 19 15 15 17 16 14 10 26 25 20 25 29 30 30 30
40 40 41 42 40 36 33 29 33 34 27 27 29 28 28 24 24 24 24 19 19 20 19 19 22 20 20 16 11 23 18 19 19 19 17 24 30 27 29 30 29 29 28 27
41 41 41 39 39 37 32 30 30 28 27 26 27 26 28 29 28 28 21 26 27 24 23 21 23 18 19 16 16 21 22 26 23 23 25 28 28 29 30 31 30 29 26 25
41 40 40 40 39 35 32 30 33 28 27 24 25 29 28 30 30 28 28 27 27 26 24 20 19 17 22 17 17 19 20 26 23 23 25 28 29 30 31 32 28 25 25 23
41 41 40 38 36 34 33 33 33 31 24 23 25 28 29 30 28 27 27 25 24 23 21 18 16 22 21 22 22 20 25 23 22 22 24 23 27 28 29 26 24 23 21 19
39 39 38 37 36 32 24 24 28 32 28 23 23 27 27 28 28 27 26 26 25 24 22 22 24 26 21 19 19 22 24 29 25 26 28 28 26 24 24 23 22 21 19 19
40 40 39 38 37 36 26 25 28 34 29 24 23 24 26 27 27 27 26 28 27 25 25 24 24 24 25 24 20 23 28 28 28 29 27 23 22 21 19 18 18 17 16 16
37 37 37 36 35 34 30 35 35 29 25 25 22 24 24 26 25 26 30 26 26 27 26 27 25 26 24 20 21 27 26 22 21 22 23 22 20 17 16 15 14 13 11 12
39 37 35 32 32 28 30 36 31 30 23 20 21 21 20 30 29 30 30 26 23 27 25 24 25 23 20 21 23 25 22 22 19 19 18 18 16 15 14 13 11 10 10 10
33 28 26 26 34 37 30 22 15 19 23 25 23 25 24 28 27 27 26 26 24 20 23 26 23 21 25 24 26 24 22 20 19 18 16 16 14 14 13 12 11 10 10 10
30 30 30 34 37 26 21 18 14 17 14 23 24 25 25 29 24 25 25 22 23 18 22 23 22 21 23 20 20 20 19 18 16 16 14 14 14 14 12 12 12 10 11 12
31 32 33 29 23 18 13 17 20 19 15 23 24 24 25 27 28 26 26 23 23 17 27 23 19 22 20 18 17 17 16 15 14 14 13 13 13 14 13 13 14 13 14 13
29 24 20 18 18 6 -3 4 18 19 23 24 23 21 27 26 26 25 23 19 18 26 22 18 21 22 18 17 19 16 15 15 14 13 13 13 13 14 14 15 15 15 14 12
20 15 12 10 9 14 17 19 20 24 24 23 25 25 25 25 22 20 16 19 22 19 17 18 22 22 20 19 19 16 16 17 16 14 13 14 14 14 13 12 12 13 13 12
21 16 15 19 21 24 26 28 27 27 27 25 23 23 23 22 21 21 20 20 15 16 14 19 23 23 20 20 17 18 17 17 16 15 14 13 13 13 11 11 12 12 12 11
24 22 20 25 25 26 28 27 26 29 27 25 23 20 18 20 20 17 15 14 12 15 19 24 23 21 21 22 20 20 18 17 16 15 15 14 14 12 10 11 10 8 8 11
23 23 24 24 26 26 26 27 28 30 27 24 21 16 16 22 18 17 18 16 18 20 23 22 23 23 23 23 21 19 18 17 16 15 15 15 13 10 11 11 12 10 11 10

GFSNW_sfc_30mbdewp_144.txt.gz
Dewpoint
44 43 46 47 48 44 41 36 28 38 41 32 33 26 21 13 10 13 12 12 11 9 8 6 8 12 13 16 14 10 12 5 -2 1 12 13 11 14 19 12 12 14 16 7
44 44 45 46 45 43 39 32 30 39 41 28 28 26 17 12 11 10 10 11 12 14 10 9 12 16 19 17 14 12 14 6 -0 7 13 15 14 16 18 21 21 13 11 5
44 45 45 46 44 43 39 33 27 31 35 32 27 25 23 12 15 13 12 13 16 15 14 15 16 17 19 18 14 21 17 7 1 -6 5 12 13 13 14 15 14 9 8 8
42 43 45 47 44 44 38 33 30 30 26 29 27 26 23 18 16 18 18 17 12 12 13 14 14 17 19 20 22 20 18 12 10 11 12 14 13 12 13 15 14 13 11 13
44 43 45 45 44 44 36 31 32 32 27 28 25 24 17 21 15 15 14 15 13 15 13 13 14 15 15 16 25 23 24 20 21 18 17 18 16 17 17 16 16 15 17 16
42 43 44 44 44 42 37 37 35 31 29 27 22 22 17 12 17 22 17 18 18 13 16 18 17 15 17 20 20 23 23 19 17 9 16 15 14 17 17 16 21 24 18 21
44 43 44 44 44 42 40 36 34 31 27 25 22 17 16 18 22 18 21 20 14 22 23 20 20 22 22 21 26 27 22 21 19 13 15 9 21 20 19 20 21 22 22 21
43 44 45 44 44 42 38 37 35 33 25 23 22 16 16 20 24 20 19 21 22 24 17 15 15 20 21 22 23 23 23 19 17 15 10 11 19 20 20 20 20 23 23 22
45 45 45 44 44 43 39 38 39 31 27 22 21 17 19 19 19 21 24 27 28 26 21 18 9 12 10 17 22 26 24 24 20 17 12 7 20 23 24 25 19 26 26 24
45 45 44 44 43 42 39 37 38 28 28 25 22 20 18 17 18 18 22 23 21 26 22 17 13 13 15 16 18 21 21 22 19 15 15 16 23 24 26 18 22 27 28 28
44 44 43 43 42 40 36 34 37 29 28 28 25 24 23 22 21 18 21 15 20 21 17 19 17 16 15 16 16 21 19 18 17 18 16 12 24 25 21 27 28 28 28 28
43 42 42 43 42 37 34 31 34 34 28 28 30 30 29 26 22 22 21 17 18 25 23 23 23 19 20 15 12 23 20 25 21 20 20 29 29 29 30 30 28 28 27 27
43 42 42 43 40 37 33 30 31 30 30 28 25 27 30 31 30 29 17 24 25 23 26 26 22 19 18 15 13 22 25 26 25 25 27 27 30 29 30 30 29 29 27 25
42 42 42 42 40 35 33 31 34 30 28 26 26 29 29 31 31 31 30 28 29 26 20 18 16 15 20 12 13 16 24 25 24 24 27 28 30 29 30 29 29 27 25 22
42 42 41 39 37 35 35 35 35 33 25 23 25 27 29 30 29 28 28 25 21 17 20 22 14 15 16 17 15 14 21 22 22 18 30 29 30 31 31 29 26 23 21 18
41 41 39 37 36 35 27 31 28 31 27 27 22 28 27 28 28 27 27 26 24 20 19 18 18 24 17 13 8 15 19 25 28 27 29 29 30 27 25 24 23 20 17 16
39 38 38 38 37 36 33 30 29 33 31 31 22 20 26 28 26 27 26 27 25 20 22 20 17 19 21 20 12 20 25 27 28 28 26 25 24 22 21 19 18 16 14 14
38 37 37 35 35 33 30 33 34 32 28 28 25 23 21 27 23 23 28 22 24 27 24 25 22 24 24 19 18 24 28 26 27 27 26 24 22 19 16 14 13 12 10 10
36 35 35 34 34 32 30 34 31 32 29 27 27 21 19 28 28 29 28 27 25 28 25 24 24 22 20 21 20 24 25 25 22 21 21 20 18 15 13 12 11 10 10 9
34 32 28 28 34 37 30 27 26 27 30 30 25 25 24 25 26 26 27 27 24 22 23 25 23 21 25 25 27 26 25 23 22 22 21 18 16 14 13 11 10 10 9 9
34 32 30 33 36 25 26 21 22 21 25 26 25 23 23 29 25 25 27 25 24 20 22 23 21 21 24 24 22 22 21 21 21 20 17 15 15 14 12 12 11 10 11 11
33 32 33 29 24 23 17 20 22 17 19 24 23 24 26 29 30 27 27 23 25 19 26 23 20 24 22 21 19 20 21 20 18 14 14 13 13 13 13 13 13 12 14 15
30 25 22 21 18 11 8 9 19 20 24 26 25 27 29 29 29 28 28 22 20 24 21 16 20 24 21 20 23 20 16 15 14 13 13 13 13 14 13 13 15 15 15 14
25 20 11 16 15 17 17 16 20 26 27 26 27 27 27 28 26 26 20 23 23 20 17 16 24 24 21 21 22 17 15 17 16 14 13 14 14 14 14 14 15 15 15 14
24 22 19 20 24 26 26 27 27 28 29 26 26 27 26 26 25 23 22 21 17 16 16 25 27 25 21 22 20 18 18 19 20 18 16 15 15 14 13 14 15 14 14 14
26 24 21 26 26 25 26 27 28 30 29 28 26 24 23 23 23 21 18 14 12 19 25 28 26 24 23 23 20 21 23 21 19 18 17 16 15 14 14 14 13 12 12 13
25 25 28 29 27 26 27 29 29 32 32 27 24 19 21 23 20 19 19 19 23 26 27 27 26 25 25 24 24 22 21 20 18 18 18 17 16 14 13 12 13 13 14 13

GFSNW_sfc_30mbdewp_147.txt.gz
Dewpoint
44 46 46 46 48 47 43 38 32 39 43 32 33 31 32 27 15 11 12 14 14 12 12 8 8 8 12 12 12 8 8 4 0 4 3 8 6 12 14 13 7 11 9 5
43 45 45 46 48 45 40 32 30 39 40 28 29 32 31 21 16 11 13 15 17 14 14 9 9 11 16 13 13 8 12 2 -2 1 8 10 7 10 14 17 20 8 8 4
43 44 44 44 46 45 38 33 26 31 32 35 33 31 30 18 15 15 12 11 13 13 10 13 10 16 18 15 13 18 14 7 2 -4 6 10 8 8 10 11 10 7 5 5
42 43 44 44 46 45 39 36 31 29 27 30 34 34 30 19 14 14 13 13 13 13 13 14 15 17 18 16 22 13 13 9 5 2 6 7 7 9 8 7 8 7 6 6
42 43 43 44 45 45 38 32 34 32 27 28 31 35 30 27 16 17 14 14 14 15 16 16 15 17 19 15 18 13 14 17 17 11 7 5 5 6 7 7 8 9 9 10
43 43 42 43 45 45 37 38 38 32 30 28 31 32 29 26 21 22 20 19 21 22 20 20 18 19 17 16 18 18 19 17 14 8 9 10 9 10 10 12 16 21 15 17
43 43 42 43 46 45 39 38 37 35 30 30 30 29 29 25 24 20 19 21 18 19 21 19 17 17 17 18 19 23 21 18 14 10 12 8 15 17 15 16 18 17 19 20
42 43 43 42 45 45 41 39 40 37 31 31 29 26 26 21 20 19 19 17 21 22 17 18 17 17 18 20 22 20 19 17 14 12 7 12 17 18 17 16 16 21 21 21
42 42 43 44 45 46 42 40 43 38 34 30 31 26 26 19 20 17 23 24 24 19 13 10 6 11 8 13 17 19 19 21 20 13 10 3 18 21 21 22 17 24 24 24
42 43 43 43 45 46 41 39 43 38 36 32 33 28 21 21 20 21 23 22 23 21 17 15 10 10 9 13 16 19 19 20 17 15 12 15 22 21 23 17 22 26 27 26
42 43 43 44 44 45 41 39 43 40 34 31 32 23 22 23 22 22 24 19 18 20 17 20 11 10 12 13 16 22 20 18 16 16 17 12 22 22 19 28 28 28 28 28
42 44 44 44 45 43 41 38 42 42 33 30 32 31 30 24 22 20 22 17 16 20 20 20 14 18 16 13 14 22 21 26 20 18 21 25 24 29 32 30 28 28 28 27
43 43 45 45 43 41 40 38 39 34 32 29 27 28 31 31 27 26 17 17 22 24 25 25 20 17 20 13 12 21 23 24 25 25 26 25 30 29 30 29 29 28 27 25
45 44 43 42 41 40 39 38 36 32 29 28 27 30 29 31 29 26 22 24 26 26 22 19 19 14 19 11 12 14 24 23 23 25 27 28 29 29 29 29 29 27 25 23
42 42 41 40 39 38 37 37 34 32 26 26 26 28 29 28 28 28 26 26 22 17 16 24 12 12 11 11 9 12 21 20 23 20 32 30 30 31 30 30 27 25 22 19
42 41 41 39 37 35 29 30 30 30 28 29 24 28 28 27 25 24 22 20 18 15 18 14 15 22 17 11 4 11 13 19 24 22 29 30 31 30 29 27 25 22 18 17
41 40 38 37 37 35 36 28 30 31 29 29 22 22 27 27 25 23 23 23 21 18 19 16 13 12 17 17 7 15 16 21 23 27 28 27 26 24 24 23 21 16 14 14
39 38 36 33 33 32 27 32 32 34 27 28 25 22 23 26 22 23 23 20 20 23 20 19 17 21 21 18 16 19 22 24 27 26 26 27 25 22 19 18 15 13 12 12
38 38 35 33 32 31 26 31 33 35 29 28 27 20 19 26 26 25 24 22 24 24 25 21 21 21 20 20 17 20 23 26 27 25 24 23 21 18 16 14 13 12 11 10
37 34 32 30 32 35 31 28 31 35 31 29 23 23 22 24 24 24 25 26 24 23 23 22 23 21 24 24 24 23 24 24 24 24 23 21 19 17 14 13 12 11 11 10
36 33 29 28 31 28 28 25 27 29 26 23 23 22 20 23 23 26 27 26 25 20 21 22 20 20 24 25 25 25 25 25 26 24 23 21 18 16 14 13 13 12 12 12
32 30 30 29 24 26 22 24 23 18 20 22 22 22 24 27 27 26 28 23 26 19 24 22 19 26 25 24 23 23 23 22 20 20 19 17 14 14 14 14 13 13 14 15
25 24 25 23 21 19 17 16 19 22 25 24 24 25 28 29 29 29 27 24 21 23 21 16 21 25 24 23 25 25 24 21 17 15 15 15 15 15 14 14 15 15 15 16
28 26 16 23 21 19 19 15 21 26 26 27 26 27 26 28 27 27 23 22 22 19 17 14 22 24 23 25 23 19 18 18 18 16 15 15 15 15 15 16 16 16 15 15
27 24 20 21 24 26 27 28 28 28 28 25 25 26 27 27 27 23 22 23 19 17 15 25 27 25 23 25 22 20 20 20 20 19 18 17 16 16 15 15 15 15 14 14
27 27 23 27 25 26 30 31 30 29 28 25 24 26 27 25 24 23 20 15 13 19 27 29 27 25 24 24 22 23 23 23 22 19 18 17 16 16 16 15 14 13 14 13
25 26 30 28 28 28 31 31 31 33 31 28 24 23 23 22 20 19 17 19 26 30 30 29 28 26 27 26 25 24 24 22 21 20 19 18 17 15 15 16 15 15 14 14